Tracking 28052 objects as of 23-Sep-2023
HD Live streaming from Space Station
objects crossing your sky now

PSLV DEB

Track PSLV DEB now!
10-day predictions


NORAD ID: 41792
Int'l Code: 2016-059K
Perigee: 653.8 km
Apogee: 692.2 km
Inclination: 97.9 °
Period: 98.1 minutes
Semi major axis: 7043 km
RCS: Unknown
Launch date: September 26, 2016
Source: India (IND)
Launch site: SRIHARIKOTA (SRI)

Note: This is SATELLITE DEBRIS
Your satellite tracking list
Your tracking list is empty




NASA's NSSDC Master Catalog

Two Line Element Set (TLE):
1 41792U 16059K   23265.55544632  .00003962  00000-0  68765-3 0  9991
2 41792  97.8821 304.9522 0027241 127.2938 233.0756 14.68499796373724
Source of the keplerian elements: AFSPC